Weather in Aleyskiy

Russia / Altai Krai     52°28′23″N   82°43′33″E
temp.,
°C
wind,
m/s
gust,
m/s
humid.,
%
clouds,
%
prec.,
mm/h
press.,
hPa
HPBL,
m
23 april, fri
fri2301:00−1nne513755 0.9 1040424
04:00−2nne511775 0.0 1040370
07:00−2nne510775 0.0 1040403
10:00+3nne68530 0.0 1041879
13:00+6nne7837100 0.0 10392562
16:00+7nne7840100 0.0 10382396
19:00+6nne674392 0.0 10381870
22:00+3n41059100 0.0 1038275
24 april, sat
sat2401:00+1n497240 0.0 1038241
04:00−1n377985 0.0 1037175
07:000n3777100 0.0 1036269
10:00+4n465946 0.0 1035837
13:00+6n4547100 0.3 10341647
16:00+8n453997 0.1 10332162
19:00+8nne454074 0.1 10331788
22:00+4ene115738 0.0 103411
25 april, sun
sun2501:00+2sse11634 0.0 103310
04:00+1sw11715 0.0 103310
07:00+1sw11705 0.0 103410
10:00+6s21495 0.0 1033522
13:00+9se213728 0.0 10321770
16:00+10e213493 0.0 10311908
19:00+10e2236100 0.0 10301700
22:00+7ese3553100 0.0 103098
26 april, mon
mon2601:00+5ese386299 0.0 1030193
04:00+4ese3767100 0.0 1029145
07:00+3ese376922 0.0 1028162
10:00+8se344717 0.0 1028510
13:00+12sse34346 0.0 10261204
16:00+15s4526100 0.0 10241700
19:00+15ssw463171 0.0 10231578
22:00+11sse41249100 0.0 1022228
27 april, tue
tue2701:00+10ssw51154100 0.0 1022229
04:00+9ssw4860100 0.1 1021200
07:00+9sw61268100 0.2 1022377
10:00+12wsw5765100 0.0 1023521
13:00+16w4736100 0.0 10231968
16:00+16w5729100 0.0 10232013
19:00+16w2436100 0.0 1022379
22:00+11s226099 0.0 102222